Wetbulb
53.94 50.09 49.17 50.94 51.42 49.85 48.72 47.74 47.11 49.61 52.26 50.78 49.70 49.63 50.67 52.63 52.43 52.12 52.43 53.40 53.98 53.62 57.25 61.44 61.74 61.95 62.91 64.36 64.77 65.80 65.24 66.01 65.38 63.05 61.48 60.55 60.75 61.32 64.81 67.23 68.29 70.54 71.40 74.95
51.31 48.90 51.74 51.97 51.23 49.29 48.71 47.33 47.55 50.24 51.62 50.88 49.74 48.30 49.88 51.37 52.39 52.96 52.73 52.37 52.60 53.64 56.60 59.93 61.14 61.98 62.60 63.87 64.12 65.59 65.36 65.91 64.49 63.62 62.98 65.41 62.74 62.08 63.46 68.19 68.77 71.98 72.31 72.35
48.57 50.11 52.23 50.61 49.35 48.21 48.57 47.45 47.49 46.68 49.32 49.90 47.58 46.01 48.54 50.93 52.20 52.27 52.16 52.40 53.26 54.18 55.53 58.91 60.39 61.59 61.93 62.51 63.59 63.30 63.79 65.76 65.88 65.65 63.44 63.37 62.41 62.88 61.06 60.01 62.58 66.62 68.85 71.75
49.51 52.03 50.38 49.60 48.43 49.04 45.92 50.04 47.79 46.79 45.19 40.74 47.42 39.25 46.53 49.51 50.19 51.21 51.56 52.28 52.90 54.63 56.55 57.35 60.41 60.85 61.39 61.34 62.39 64.02 64.37 64.55 65.56 66.39 62.81 62.68 60.48 59.28 60.77 60.99 60.69 62.74 65.93 68.03
48.47 49.61 49.40 48.10 48.09 49.65 47.06 48.90 47.18 46.65 44.82 44.71 44.82 42.10 45.71 50.00 47.28 49.35 51.39 52.30 53.44 54.09 55.48 57.12 57.71 59.13 60.15 61.46 60.90 63.65 64.61 65.59 66.41 66.61 65.91 61.47 60.16 59.76 60.81 60.91 61.63 61.81 62.90 64.63
51.30 53.77 51.70 49.47 50.48 49.65 49.91 48.19 47.72 47.30 45.64 40.49 44.23 43.33 43.26 45.95 47.70 49.35 51.45 52.26 52.49 53.25 55.13 57.09 59.11 59.97 60.11 59.30 60.06 58.93 60.37 63.89 66.09 65.73 65.21 63.70 61.63 60.61 59.76 59.94 59.98 61.21 62.17 64.02
48.86 49.70 51.75 51.64 48.48 50.21 48.96 45.49 39.22 36.81 37.86 37.15 44.87 42.31 44.26 48.61 49.77 50.72 50.73 51.51 52.94 53.93 54.03 56.04 56.37 56.96 60.20 58.99 59.50 59.78 57.98 63.34 64.71 63.92 63.62 62.48 62.26 61.23 59.31 59.64 59.79 59.33 59.98 61.33
43.80 42.16 48.74 51.48 48.77 45.91 45.79 44.73 39.31 32.15 33.98 37.47 43.88 38.32 42.41 50.09 51.17 52.40 53.03 54.12 54.33 54.66 55.08 53.50 53.26 55.38 54.00 56.64 59.69 60.10 61.37 61.90 62.89 62.13 62.87 62.73 61.44 59.08 58.93 59.29 60.86 59.94 59.69 60.49
42.66 42.82 50.03 50.38 50.15 48.53 44.95 42.21 46.76 41.42 41.75 37.43 40.59 44.08 48.13 50.18 49.59 50.49 50.66 51.74 52.68 54.20 53.91 53.43 52.82 53.56 52.12 52.77 57.97 59.92 60.60 61.38 61.59 60.91 61.37 60.93 60.17 60.61 59.99 60.19 59.81 60.01 60.66 61.15
47.17 40.89 47.73 49.47 49.66 49.29 47.49 48.96 41.66 42.82 32.78 31.07 37.71 39.79 40.92 46.15 47.03 48.50 48.02 49.62 51.54 53.74 53.15 53.84 53.36 53.17 53.09 52.64 56.33 58.15 59.73 59.33 59.96 59.56 59.65 58.81 59.06 59.20 59.04 59.19 58.83 59.40 60.14 60.88
47.86 45.93 44.12 48.15 45.96 44.75 44.74 43.60 45.09 44.80 41.39 33.90 32.44 36.63 47.29 47.43 48.45 48.71 49.09 50.33 51.19 52.28 52.05 52.21 53.05 54.45 54.53 53.36 55.49 57.43 57.79 57.15 57.17 57.70 58.25 58.28 58.44 58.46 58.10 57.28 57.71 58.09 59.30 60.00
48.53 45.80 40.63 42.91 47.64 48.81 47.39 44.97 44.94 38.73 35.60 39.98 37.70 37.09 48.82 49.21 49.23 49.39 49.39 50.11 50.45 51.36 52.63 53.36 53.32 54.14 53.79 53.42 55.65 55.28 56.74 55.49 55.62 56.58 56.66 57.21 57.07 56.96 56.28 56.44 57.39 58.90 58.94 59.69
48.61 44.43 37.56 39.32 44.95 47.82 45.10 45.97 45.85 45.68 43.93 38.46 33.71 36.22 48.56 49.20 47.01 48.19 48.44 49.56 49.75 50.77 51.16 51.48 52.35 53.13 53.91 54.18 54.15 54.26 54.95 54.39 55.71 55.13 54.29 54.06 54.29 53.89 53.76 54.31 55.40 56.43 56.41 58.03
49.14 43.69 40.43 35.98 40.36 44.22 41.23 43.08 44.10 43.61 37.83 36.85 37.56 38.26 42.49 45.10 45.62 47.27 48.23 49.00 49.05 49.97 50.66 51.28 51.98 52.02 52.85 53.42 53.74 53.49 53.46 53.97 53.53 53.30 52.75 52.17 52.09 52.24 51.81 52.33 53.21 54.11 55.82 57.21
48.78 41.66 43.99 44.31 44.24 43.82 43.07 42.13 42.29 40.58 41.15 37.07 38.23 38.46 41.73 44.32 45.53 46.75 48.30 47.98 47.22 47.73 49.30 50.38 50.64 50.57 51.52 51.86 51.71 52.19 52.08 52.21 52.07 51.25 50.71 50.55 50.75 50.65 50.68 50.97 52.03 53.50 55.73 56.96
50.14 42.35 43.88 40.87 43.74 43.61 40.72 42.43 42.77 42.26 41.18 40.02 40.30 39.12 45.86 46.86 47.37 46.75 46.58 46.25 45.99 47.41 48.16 49.32 49.73 49.95 49.71 50.21 50.02 49.99 49.90 49.96 50.58 49.07 48.37 48.80 47.82 48.20 49.15 49.69 50.95 52.76 55.03 55.77
45.75 43.61 40.93 36.67 42.04 41.39 37.19 39.98 41.45 42.07 43.44 42.06 37.30 41.63 45.09 44.00 44.36 44.80 44.58 45.78 45.94 46.72 47.20 48.03 47.98 48.16 48.26 48.63 48.67 47.87 48.05 48.22 47.78 47.67 47.53 47.22 46.72 47.05 47.93 49.54 50.88 52.52 53.60 55.49
45.76 43.91 42.07 37.06 38.93 29.77 40.75 45.48 44.26 41.17 43.01 44.08 43.55 42.65 43.19 44.05 45.88 45.80 46.50 45.47 45.38 46.31 46.45 46.98 47.32 46.89 47.71 48.10 47.05 47.12 47.80 47.45 47.53 47.31 47.32 47.08 46.54 46.27 47.73 49.19 50.71 53.23 53.69 57.33
49.13 44.81 39.92 35.17 34.67 38.35 40.56 41.97 41.16 39.23 38.80 44.68 42.27 43.69 44.22 45.17 45.34 43.93 46.78 46.35 46.33 45.43 46.41 46.31 47.37 47.11 46.60 46.15 47.35 46.92 46.43 46.50 46.26 45.85 45.84 45.91 45.75 46.03 47.66 48.17 51.09 52.70 55.64 56.98
47.58 47.41 41.53 37.90 32.27 29.05 39.27 44.24 46.84 45.30 35.86 44.93 44.67 44.46 43.78 43.67 37.14 41.00 46.36 46.55 45.25 46.01 46.05 45.19 46.00 46.13 45.42 45.94 46.39 45.39 44.12 44.21 43.57 44.19 45.00 45.68 45.63 46.92 46.56 48.63 50.76 53.23 55.90 54.15
40.98 40.66 36.87 36.20 34.61 37.52 43.47 45.53 46.81 33.87 36.29 45.97 45.87 45.35 44.85 41.41 43.39 45.61 45.86 44.63 44.93 44.88 44.74 45.43 45.12 43.82 44.25 45.05 44.76 43.02 42.74 41.87 43.46 44.50 45.07 45.75 46.08 45.54 47.17 48.75 53.34 54.70 51.45 50.94
38.61 37.77 37.05 37.50 33.83 31.17 47.01 45.24 36.24 43.58 48.19 47.51 47.02 46.76 44.72 45.80 44.55 44.77 43.41 42.96 42.88 42.47 43.53 44.78 43.31 42.79 43.50 43.79 43.16 42.06 41.48 43.33 43.68 43.98 44.82 44.41 45.01 46.95 49.32 51.68 53.51 51.57 49.57 48.48
38.13 41.85 38.64 39.90 38.58 48.04 48.19 46.22 49.82 49.89 47.67 47.27 47.12 47.12 46.56 43.70 42.71 41.46 40.46 40.92 41.28 42.37 42.44 42.50 41.73 41.27 41.72 42.44 42.50 41.08 41.80 43.00 43.39 43.60 43.58 44.35 46.62 48.75 51.89 52.16 52.79 48.97 48.56 47.61
43.95 46.34 42.86 42.09 44.33 45.38 47.21 48.89 49.67 48.75 48.75 49.44 48.97 47.29 45.81 41.92 40.72 39.86 39.96 39.96 40.30 40.43 40.17 40.94 40.45 39.34 39.80 41.14 41.62 41.89 42.46 43.52 43.68 43.39 44.04 46.47 47.75 49.63 53.25 52.84 52.43 49.56 47.55 47.00
43.67 45.33 42.07 42.38 44.78 45.81 46.72 48.24 48.73 49.13 49.76 48.94 48.34 46.13 43.71 41.35 40.12 39.27 38.90 39.09 39.29 39.31 39.65 39.93 39.44 39.24 39.40 40.84 41.38 42.77 43.31 44.16 43.59 45.13 46.53 47.76 50.24 49.12 45.15 44.46 47.07 48.55 48.14 47.59
46.86 43.94 41.31 40.06 45.61 46.12 45.95 49.16 49.92 48.36 48.10 47.26 45.36 43.50 42.81 40.87 39.31 39.73 38.98 39.35 39.03 38.63 39.70 39.16 39.60 39.92 40.68 41.67 42.56 43.87 45.45 44.94 44.32 44.84 46.61 48.71 49.93 46.63 45.28 44.34 42.49 39.24 40.90 40.88
MSLP
1005.89 1005.90 1004.57 1004.47 1005.34 1005.96 1006.01 1005.75 1005.26 1004.83 1004.54 1004.40 1004.36 1004.34 1004.44 1004.31 1004.09 1003.80 1003.77 1003.92 1004.12 1004.58 1005.52 1007.01 1008.27 1009.29 1010.30 1011.29 1012.18 1012.72 1012.79 1012.75 1012.43 1012.12 1011.91 1011.60 1011.27 1010.73 1009.90 1009.20 1008.23 1007.53 1007.17 1007.16
1005.75 1004.99 1004.82 1005.38 1006.02 1006.37 1006.31 1006.11 1005.60 1004.99 1004.87 1004.86 1004.73 1004.55 1004.54 1004.06 1003.34 1002.76 1002.96 1003.55 1004.15 1004.85 1005.70 1006.93 1008.28 1009.35 1010.21 1010.96 1011.62 1012.22 1012.76 1012.87 1012.72 1012.43 1012.31 1011.80 1011.57 1010.78 1010.02 1009.10 1008.67 1007.87 1006.94 1006.71
1006.06 1005.75 1005.41 1005.77 1006.33 1006.38 1006.28 1006.06 1005.75 1005.93 1006.15 1006.00 1005.54 1004.30 1003.60 1002.82 1002.39 1002.33 1002.95 1003.83 1004.63 1005.20 1005.66 1006.50 1007.69 1008.85 1009.63 1010.25 1010.84 1011.36 1011.80 1012.39 1012.62 1012.56 1012.33 1011.96 1011.64 1010.72 1010.03 1009.56 1008.89 1008.39 1007.91 1006.94
1006.60 1005.91 1006.04 1006.52 1006.56 1006.56 1006.35 1006.52 1006.86 1006.99 1007.04 1006.35 1006.43 1004.45 1004.07 1002.81 1001.88 1001.95 1002.61 1003.34 1004.08 1004.66 1005.53 1006.50 1007.43 1008.09 1008.85 1009.49 1010.08 1010.60 1011.17 1011.51 1011.71 1012.27 1012.58 1012.44 1012.07 1011.44 1010.98 1010.32 1009.50 1008.79 1008.07 1007.90
1007.05 1006.39 1006.38 1006.82 1007.17 1007.55 1007.83 1008.01 1008.11 1008.09 1007.58 1006.95 1006.24 1005.29 1003.12 1002.29 1001.99 1002.37 1002.25 1002.84 1003.62 1004.47 1005.32 1006.07 1006.84 1007.49 1008.15 1008.89 1009.52 1009.92 1010.69 1011.24 1011.49 1011.58 1012.18 1012.40 1012.17 1011.91 1011.36 1010.84 1010.14 1009.23 1008.27 1007.62
1007.08 1006.78 1006.97 1007.25 1008.01 1008.22 1008.39 1008.61 1008.21 1007.92 1007.42 1006.39 1005.44 1004.62 1003.45 1002.65 1002.52 1002.43 1002.67 1003.12 1003.84 1004.56 1005.24 1005.77 1006.26 1007.42 1007.79 1008.32 1009.53 1009.50 1010.35 1011.19 1011.29 1011.17 1011.64 1012.07 1012.08 1011.87 1011.49 1011.01 1010.46 1009.50 1008.26 1007.40
1008.01 1006.85 1007.30 1008.25 1008.55 1008.41 1008.17 1008.84 1008.89 1008.53 1008.18 1007.26 1006.09 1005.09 1004.06 1003.61 1003.29 1003.23 1003.56 1004.24 1004.84 1005.38 1005.54 1006.42 1007.24 1007.63 1008.18 1008.91 1008.72 1009.41 1010.63 1010.42 1010.63 1010.60 1010.97 1011.56 1011.73 1011.76 1011.49 1010.90 1010.11 1009.46 1008.50 1007.59
1008.92 1008.14 1008.47 1008.92 1009.11 1009.20 1009.45 1009.77 1009.96 1009.34 1009.30 1008.29 1008.08 1006.55 1005.16 1004.65 1004.88 1005.13 1005.96 1006.59 1006.70 1007.39 1008.14 1009.12 1010.23 1010.22 1010.93 1012.55 1008.55 1009.21 1009.70 1009.68 1010.00 1010.14 1010.49 1011.00 1011.22 1011.18 1010.94 1010.56 1010.04 1009.64 1008.99 1008.27
1011.15 1010.06 1010.01 1009.99 1009.71 1010.02 1009.85 1009.95 1009.98 1010.44 1010.72 1009.96 1008.55 1006.95 1005.40 1005.22 1006.80 1007.51 1008.48 1009.20 1009.11 1009.35 1010.06 1010.45 1011.17 1011.47 1010.74 1013.28 1010.31 1009.36 1009.10 1009.21 1009.81 1010.18 1010.26 1010.39 1010.70 1010.61 1010.50 1010.30 1010.06 1009.36 1008.65 1008.06
1012.65 1012.04 1011.61 1010.41 1010.38 1010.28 1009.79 1009.79 1010.26 1011.02 1011.24 1010.27 1008.79 1007.86 1006.66 1006.31 1007.19 1008.28 1010.15 1010.16 1010.08 1010.57 1010.99 1011.04 1011.76 1011.89 1011.64 1011.77 1010.38 1009.60 1009.10 1009.30 1009.64 1009.93 1009.85 1009.84 1010.19 1010.23 1010.12 1009.95 1009.65 1009.08 1008.42 1007.91
1013.39 1013.17 1012.30 1011.65 1010.60 1009.63 1009.59 1009.55 1009.96 1010.44 1011.09 1010.99 1010.19 1008.29 1008.20 1007.58 1007.82 1008.36 1009.24 1009.97 1010.69 1011.00 1011.25 1011.15 1011.31 1011.53 1011.15 1010.67 1010.84 1009.48 1009.37 1009.30 1009.37 1009.59 1009.43 1009.48 1009.69 1009.73 1009.73 1009.67 1009.28 1008.78 1008.15 1007.45
1014.04 1013.92 1013.16 1012.44 1010.98 1010.44 1010.05 1010.04 1010.62 1011.78 1012.76 1012.23 1011.85 1009.05 1009.94 1009.12 1009.02 1009.26 1009.83 1010.40 1011.61 1012.32 1011.92 1011.36 1010.87 1010.19 1010.72 1010.38 1009.19 1008.80 1009.17 1009.28 1009.24 1009.15 1009.03 1009.22 1009.45 1009.49 1009.53 1009.42 1008.97 1008.41 1007.73 1007.10
1015.20 1015.03 1014.31 1012.93 1010.87 1010.84 1010.57 1010.75 1010.94 1011.17 1011.54 1011.47 1011.87 1010.17 1010.89 1010.25 1010.38 1010.68 1010.55 1010.94 1011.21 1011.03 1011.22 1010.59 1009.94 1009.87 1009.63 1009.23 1008.94 1008.69 1008.78 1009.16 1009.18 1009.15 1009.21 1009.26 1009.43 1009.63 1009.63 1009.39 1008.97 1008.45 1007.92 1006.97
1015.77 1015.82 1015.39 1014.34 1012.89 1012.25 1011.60 1011.23 1011.01 1011.09 1011.26 1011.93 1012.32 1012.29 1011.99 1010.46 1010.74 1010.84 1010.55 1011.37 1011.66 1011.29 1010.67 1010.22 1009.94 1009.74 1009.54 1009.38 1009.20 1009.33 1009.36 1009.38 1009.29 1009.34 1009.40 1009.42 1009.53 1009.68 1009.67 1009.34 1008.76 1008.13 1007.42 1006.59
1015.39 1015.58 1015.16 1014.34 1013.66 1012.71 1012.01 1011.33 1010.99 1011.46 1011.94 1012.19 1012.36 1012.03 1011.61 1011.53 1011.58 1011.39 1011.37 1011.54 1011.51 1011.37 1011.01 1010.51 1010.03 1009.73 1009.70 1009.55 1009.58 1009.71 1009.81 1009.76 1009.70 1009.46 1009.47 1009.53 1009.51 1009.60 1009.45 1008.90 1008.19 1007.50 1006.60 1005.89
1015.10 1015.16 1015.16 1014.58 1013.79 1012.91 1012.18 1011.91 1012.13 1012.41 1013.11 1013.12 1013.07 1012.77 1012.82 1012.80 1012.39 1012.15 1012.34 1012.28 1011.89 1011.45 1011.01 1010.58 1009.99 1009.78 1009.83 1009.84 1009.74 1009.64 1009.66 1009.67 1009.59 1009.50 1009.50 1009.38 1009.29 1009.08 1008.83 1008.44 1007.62 1006.83 1005.80 1005.12
1015.64 1015.67 1015.50 1014.63 1014.35 1013.43 1013.08 1014.00 1013.58 1013.53 1013.41 1013.84 1014.03 1013.78 1014.10 1013.91 1013.71 1013.44 1013.10 1012.86 1012.23 1011.58 1011.09 1010.76 1010.57 1010.38 1010.17 1010.06 1009.91 1009.53 1009.50 1009.42 1009.23 1009.16 1009.04 1008.94 1008.79 1008.46 1008.21 1007.70 1006.97 1006.04 1005.18 1004.52
1015.24 1015.77 1015.76 1015.06 1014.62 1014.06 1013.68 1015.34 1015.02 1015.00 1014.86 1014.81 1015.03 1015.46 1015.27 1014.48 1013.85 1013.88 1013.55 1012.85 1012.63 1012.23 1011.70 1011.24 1010.75 1010.35 1010.12 1009.99 1009.77 1009.37 1009.13 1008.88 1008.69 1008.60 1008.43 1008.32 1008.17 1008.01 1007.49 1006.93 1006.23 1005.26 1004.77 1003.82
1015.13 1015.60 1015.56 1015.76 1015.37 1014.66 1014.17 1015.96 1015.69 1015.39 1015.04 1015.50 1015.66 1015.26 1015.08 1014.64 1014.03 1013.28 1013.27 1013.37 1012.87 1012.35 1011.79 1011.31 1010.77 1010.30 1009.96 1009.63 1009.24 1008.96 1008.65 1008.42 1008.25 1008.06 1007.86 1007.68 1007.61 1007.34 1006.90 1006.39 1005.45 1004.84 1004.27 1003.63
1014.47 1015.20 1016.22 1016.42 1015.90 1015.08 1015.26 1016.15 1015.59 1015.19 1014.98 1015.66 1015.74 1015.48 1015.24 1014.72 1013.82 1012.60 1012.95 1012.89 1012.57 1012.33 1011.85 1011.17 1010.59 1009.91 1009.52 1009.12 1008.87 1008.51 1008.21 1008.06 1007.94 1007.81 1007.42 1007.21 1006.99 1006.64 1006.38 1005.81 1005.11 1004.39 1003.56 1003.61
1014.91 1015.36 1015.77 1015.73 1015.93 1015.57 1016.00 1015.87 1015.44 1015.57 1016.27 1015.99 1015.81 1015.58 1015.25 1014.99 1014.60 1013.50 1013.25 1013.01 1012.81 1012.17 1011.46 1010.69 1010.11 1009.60 1009.10 1008.76 1008.43 1008.04 1007.84 1007.60 1007.53 1007.31 1007.02 1006.65 1006.34 1006.11 1005.75 1005.24 1004.71 1004.02 1003.73 1004.20
1015.74 1016.27 1016.46 1016.55 1016.17 1015.37 1015.49 1015.66 1016.79 1016.75 1016.09 1015.79 1015.42 1015.26 1015.01 1014.60 1014.16 1013.83 1013.67 1013.16 1012.74 1011.91 1010.96 1010.35 1009.73 1009.33 1008.99 1008.60 1008.10 1007.53 1007.25 1007.14 1007.03 1006.77 1006.35 1006.06 1005.68 1005.40 1004.94 1004.50 1004.15 1004.03 1004.30 1004.65
1016.31 1016.60 1017.39 1017.38 1016.60 1016.14 1016.49 1016.30 1016.18 1016.05 1015.83 1015.45 1015.38 1015.06 1014.75 1014.64 1014.60 1014.59 1014.00 1013.36 1012.59 1011.62 1010.98 1010.33 1009.61 1008.80 1008.36 1007.90 1007.54 1006.97 1006.58 1006.59 1006.44 1006.10 1005.80 1005.40 1004.96 1004.52 1004.09 1003.98 1003.82 1004.36 1004.65 1004.91
1016.21 1016.54 1016.61 1016.95 1016.41 1016.33 1016.17 1016.02 1016.11 1015.93 1015.58 1015.17 1015.08 1014.86 1015.04 1015.15 1015.07 1014.55 1014.03 1013.16 1012.30 1011.56 1010.70 1009.94 1009.12 1008.23 1007.40 1006.95 1006.63 1006.31 1006.00 1005.92 1005.76 1005.46 1005.12 1004.59 1004.15 1003.80 1003.58 1003.64 1004.04 1004.38 1004.81 1005.03
1016.33 1017.06 1017.43 1016.82 1016.46 1016.51 1016.32 1016.18 1015.94 1015.51 1015.12 1014.97 1014.84 1015.24 1015.48 1015.46 1015.01 1014.67 1013.74 1012.90 1012.04 1011.09 1010.14 1009.37 1008.48 1007.60 1006.63 1006.03 1005.49 1005.14 1005.01 1005.10 1005.05 1004.70 1004.29 1003.94 1003.68 1003.90 1004.11 1004.64 1004.81 1004.83 1005.07 1005.16
1016.62 1017.11 1017.31 1016.93 1016.91 1016.68 1016.11 1015.66 1015.21 1014.88 1014.86 1014.81 1015.09 1015.29 1015.57 1015.74 1015.15 1014.41 1013.55 1012.71 1011.65 1010.49 1009.37 1008.46 1007.47 1006.63 1005.69 1004.99 1004.43 1004.02 1003.88 1004.15 1004.36 1004.06 1003.74 1003.54 1003.84 1004.34 1004.78 1005.21 1005.65 1005.89 1005.70 1005.67
Wind_Speed
3 9 11 12 9 11 13 14 15 16 14 15 15 16 16 15 17 17 16 13 11 4 8 12 8 7 7 7 2 4 5 6 6 5 7 7 7 9 10 9 11 10 10 1
11 12 8 7 7 12 14 15 17 15 16 15 16 20 21 21 21 20 15 8 5 7 7 11 10 7 5 7 6 1 4 6 7 5 6 4 6 8 9 8 10 13 8 8
12 15 14 6 11 13 14 16 16 16 18 17 20 23 20 18 17 8 5 3 6 6 5 10 12 10 9 7 8 7 5 1 4 6 6 6 7 6 7 10 10 10 16 12
8 15 5 9 12 14 14 16 18 17 17 16 17 18 20 20 19 11 12 13 12 14 12 6 12 11 11 9 7 7 7 5 1 4 6 8 8 9 7 8 10 12 13 14
16 15 13 10 11 11 14 16 15 18 19 21 19 14 17 19 3 11 10 6 4 1 3 11 14 11 8 10 10 6 5 3 2 2 3 5 8 8 9 9 12 14 14 12
17 10 11 5 10 12 8 15 18 19 17 16 20 15 15 10 14 17 11 7 3 5 10 11 7 1 4 7 4 10 9 4 3 2 3 6 7 9 9 10 11 11 10 11
18 11 8 3 8 13 11 14 10 7 9 14 20 19 14 20 20 15 13 13 12 14 9 10 8 9 4 1 7 8 10 2 2 3 3 6 7 9 11 12 9 12 11 10
9 9 14 11 7 11 14 13 9 16 14 17 19 14 15 13 19 17 22 25 20 21 19 16 19 19 19 25 4 3 4 4 4 5 4 5 8 8 8 10 9 10 11 13
9 8 24 17 11 9 11 12 14 10 13 16 14 20 19 10 16 20 23 23 22 19 16 17 17 15 16 24 22 8 6 5 4 5 4 5 7 9 8 10 11 11 12 12
7 16 12 15 7 13 19 14 10 6 7 16 16 21 16 12 15 4 5 13 2 8 17 15 11 7 3 14 17 11 7 5 4 6 6 6 8 9 9 10 13 13 13 14
12 9 12 15 16 18 16 13 12 14 11 11 13 13 16 23 24 18 16 18 16 14 9 7 8 8 6 8 22 10 10 10 8 8 8 8 8 8 10 12 13 14 15 14
10 6 12 18 23 20 14 12 12 5 12 14 15 20 19 19 22 16 18 13 9 10 11 11 14 13 13 17 7 4 6 10 11 9 9 8 9 10 11 13 15 14 14 14
8 4 8 10 8 16 18 15 19 15 12 17 17 15 19 21 17 12 11 15 9 8 7 12 13 14 15 14 11 7 8 11 10 11 12 12 11 12 14 15 15 14 16 17
4 7 10 11 18 19 20 23 24 21 8 14 15 19 21 13 18 20 17 12 16 19 19 19 15 15 15 15 11 13 12 11 11 11 13 13 12 13 15 16 16 17 17 17
4 11 15 17 21 23 25 25 24 19 20 15 17 19 20 20 21 20 18 20 22 22 21 20 19 14 15 15 13 13 13 13 12 13 13 13 14 14 16 17 16 18 17 17
8 14 18 21 23 21 23 23 16 14 12 10 16 19 21 21 21 20 22 23 24 22 23 23 20 19 18 17 18 16 14 13 13 13 15 14 18 18 15 16 17 18 17 18
12 11 14 19 22 22 19 10 17 15 17 16 15 19 20 20 20 18 18 23 24 23 23 23 22 20 18 16 15 15 15 15 14 14 15 15 16 16 16 16 17 19 15 18
9 10 11 14 18 14 7 13 11 9 14 16 14 15 18 19 21 22 23 22 20 23 22 22 19 18 16 16 16 15 14 14 13 14 15 13 13 15 16 15 17 15 13 15
10 8 10 9 11 17 9 6 8 10 16 8 12 19 22 23 23 20 16 17 21 21 19 18 19 19 19 18 16 15 14 12 12 14 14 13 13 15 13 15 16 11 15 3
5 8 7 12 17 14 9 17 12 16 10 12 21 19 19 20 15 17 23 22 21 19 18 19 22 20 17 17 15 14 14 14 14 14 12 12 13 11 13 15 14 12 1 3
11 12 13 13 15 7 7 16 14 8 11 21 18 19 20 18 17 23 23 22 20 20 23 22 18 17 16 16 15 15 14 14 12 13 13 13 9 12 14 15 11 6 5 4
13 6 10 7 12 6 22 16 5 9 16 18 19 20 20 21 20 22 23 23 23 23 23 19 19 17 16 16 14 14 14 11 11 12 12 11 11 11 11 10 9 6 5 3
4 7 5 6 8 14 15 11 14 14 17 18 20 19 21 19 21 19 22 20 20 21 20 19 17 17 16 14 13 15 13 10 11 10 10 12 12 12 10 6 5 6 5 3
14 11 7 12 8 13 13 17 18 17 19 19 17 20 19 19 19 20 19 19 18 18 18 16 17 17 18 14 13 13 12 10 10 10 11 11 8 8 5 5 4 5 4 4
8 10 5 11 13 19 13 19 19 20 19 18 18 16 16 19 18 18 19 19 18 18 16 16 16 15 18 15 15 13 10 9 9 10 9 8 5 5 7 6 4 4 3 3
4 5 4 9 14 12 17 16 18 16 19 16 17 18 18 16 19 19 17 17 17 19 18 17 18 15 16 15 14 13 10 9 9 10 8 5 3 5 6 6 6 17 10 12
Wind_Direction
317 305 295 10 17 335 310 298 297 297 292 290 290 292 285 285 281 270 271 269 265 295 112 116 117 114 130 115 66 29 10 21 345 6 347 352 348 322 313 301 284 268 262 321
269 253 18 351 321 305 291 282 280 291 311 316 307 298 294 279 266 260 246 265 318 281 155 136 146 157 169 156 150 126 19 6 339 3 322 326 331 306 305 295 301 298 250 256
319 308 326 359 306 289 283 290 300 316 316 297 285 278 284 302 297 251 172 242 286 306 254 189 159 175 190 182 164 162 153 31 321 6 334 334 326 316 336 334 322 337 336 294
310 287 329 283 279 302 300 338 333 315 306 295 320 296 286 275 259 245 199 210 215 222 208 211 175 189 185 191 176 174 165 161 147 14 337 339 312 320 332 315 319 320 315 313
290 305 333 312 305 358 307 321 310 294 282 280 277 268 283 288 241 263 245 243 257 302 238 201 220 223 196 183 196 156 123 67 70 69 316 316 315 318 310 316 310 314 303 296
268 252 253 238 328 300 275 283 300 293 280 267 269 267 280 305 315 310 289 241 249 284 243 238 211 314 210 141 44 22 32 324 17 17 320 309 302 309 310 306 298 290 291 298
327 296 93 58 320 317 319 328 314 300 319 296 318 323 321 323 309 349 13 5 340 317 306 357 328 287 271 357 162 122 224 249 288 316 341 303 304 303 296 290 297 300 297 298
315 316 25 16 303 311 296 288 275 293 302 305 318 293 293 10 13 8 6 4 15 15 19 29 22 16 22 338 330 40 309 289 322 316 315 313 296 285 285 287 304 309 303 300
321 298 335 322 315 337 314 299 295 303 288 282 286 288 285 50 49 4 356 340 341 350 2 6 23 27 34 341 309 342 322 332 333 335 312 299 298 288 301 302 291 286 288 291
300 304 303 294 309 268 258 249 280 276 290 274 285 305 294 326 3 96 329 282 286 332 347 350 343 325 227 256 303 334 330 314 307 294 295 307 300 295 293 300 295 288 286 285
311 278 288 299 284 303 319 302 262 272 281 286 294 283 326 331 335 337 346 357 350 340 342 334 315 292 265 270 279 310 305 308 323 316 308 297 292 301 305 299 290 288 285 284
325 297 294 301 293 281 266 301 303 9 298 285 297 280 304 324 328 351 352 15 354 302 302 318 288 274 264 249 311 284 318 323 312 293 306 314 318 318 311 303 295 295 291 288
356 318 316 306 320 350 320 304 300 290 276 262 284 299 329 310 28 344 331 340 314 258 266 302 320 326 316 329 309 307 306 313 330 336 323 314 320 318 310 305 299 300 298 293
158 262 267 278 292 318 305 295 292 287 295 291 288 309 293 347 353 340 355 359 336 322 329 328 329 321 327 321 342 343 339 335 328 323 314 306 307 310 303 299 295 292 282 286
219 271 280 296 302 293 301 307 310 338 324 326 330 320 335 350 341 335 342 339 331 321 318 315 314 323 317 325 340 332 331 327 322 314 307 303 301 295 293 292 291 288 282 281
312 296 304 296 294 310 303 310 342 331 311 298 337 320 358 342 339 337 339 332 321 315 314 307 315 327 320 317 317 320 311 307 310 301 291 293 291 289 289 284 283 282 279 283
289 288 305 296 303 308 303 347 321 334 341 355 326 340 353 336 325 323 328 323 312 313 317 321 320 312 308 306 307 307 304 296 285 281 280 284 286 287 283 283 279 276 282 285
271 300 292 299 306 299 47 32 3 332 321 323 357 347 315 315 324 323 321 312 319 314 312 311 310 307 310 305 302 297 289 285 282 278 279 278 279 282 280 282 278 280 289 279
215 267 283 293 305 293 7 17 333 333 308 34 334 333 325 323 312 309 321 330 312 305 305 305 303 305 305 299 299 294 289 283 281 285 280 279 280 277 280 281 281 288 285 337
266 238 256 279 282 306 11 352 331 303 291 347 334 326 323 320 308 316 332 326 321 317 308 310 305 301 300 298 298 293 289 290 292 282 282 282 273 275 278 279 286 291 171 57
319 322 301 313 308 294 37 343 350 0 312 320 320 316 322 314 312 314 325 320 315 311 309 300 298 300 298 300 295 288 288 279 283 279 274 273 275 272 271 276 275 270 79 78
307 290 298 313 302 309 352 0 360 296 303 317 322 323 310 315 317 324 322 316 315 306 303 308 310 303 301 296 289 282 279 282 282 277 275 276 271 268 268 269 271 105 100 103
318 326 300 290 281 305 343 328 331 326 320 317 318 312 325 326 326 323 314 313 309 307 314 304 298 297 293 288 283 281 280 278 272 268 268 265 265 267 262 263 129 109 113 120
304 314 301 318 317 330 332 329 330 319 317 313 318 332 337 327 326 318 313 309 309 307 304 302 299 295 292 288 280 269 272 267 263 253 258 258 265 278 277 94 110 122 129 137
332 314 285 303 329 329 328 325 316 311 312 334 336 348 339 330 321 314 309 308 306 305 303 301 294 290 287 289 283 275 258 243 251 255 255 264 274 69 79 59 40 92 97 120
355 337 323 307 328 322 315 314 299 320 339 333 349 342 339 331 316 312 309 307 306 307 306 304 297 289 284 284 279 276 259 219 224 242 240 242 102 109 97 98 77 40 76 83